Flag for Germany Weather past 2 weeks in Buchholz in der Nordheide, Lower Saxony, Germany

Now
63 °F

Passing clouds.


Feels Like: 63 °F
Forecast: 47 / 55 °F
Wind: 12 mph from South

Location: Hamburg-Finkenwerder

Current Time: May 29, 2015 at 5:31:16 PM

Latest Report: May 29, 2015 at 4:50 PM


Visibility: N/A

Pressure: 29.68 "Hg

Humidity: 42%

Dew point: 39 °F

Location of Buchholz in der NordheideLocation

Historic Weather in Buchholz in der Nordheide — Graph

°F

Buchholz in der Nordheide temperature yesterday

Maximum temperature yesterday: 59 °F (at 9:50 AM)
Minimum temperature yesterday: 54 °F (at 6:20 AM)
Average temperature yesterday: 56 °F

Past Weeks' High & Low Weather Summary

 TemperatureHumidityPressure
High66 °F (May 22, 2:20 PM)100% (May 16, 5:20 PM)30.30 "Hg (May 16, 5:20 PM)
Low43 °F (May 21, 6:20 AM)42% (May 29, 2:50 PM)29.59 "Hg (May 19, 6:20 AM)
Average54 °F71%29.99 "Hg
* Reported May 15 5:50 AM — May 29 4:20 PM, Buchholz in der Nordheide, Weather by CustomWeather, © 2015

Note: Actual official high and low records may vary slightly from our data, if they occured in-between our weather recording intervals... More about our weather records

Advertising

Buchholz in der Nordheide weather history for previous 24 hours

 ConditionsComfort  
Time TempWeatherWind HumidityBarometerVisibility
4:20 PM
Fri, May 29
63 °FPassing clouds.12 mph42%29.71 "HgN/A
3:50 PM63 °FPassing clouds.13 mph45%29.71 "HgN/A
3:20 PM63 °FPassing clouds.13 mph42%29.74 "HgN/A
2:50 PM63 °FPassing clouds.12 mph42%29.74 "HgN/A
2:20 PM61 °FPassing clouds.12 mph45%29.77 "HgN/A
1:50 PM61 °FPassing clouds.15 mph45%29.77 "HgN/A
1:20 PM59 °FPartly sunny.12 mph48%29.80 "HgN/A
12:50 PM59 °FPassing clouds.12 mph48%29.80 "HgN/A
12:20 PM59 °FPassing clouds.12 mph48%29.83 "HgN/A
11:50 AM59 °FPassing clouds.10 mph51%29.83 "HgN/A
11:20 AM57 °FPassing clouds.10 mph55%29.83 "HgN/A
10:50 AM57 °FPassing clouds.9 mph63%29.86 "HgN/A
10:20 AM55 °FPassing clouds.10 mph67%29.86 "HgN/A
9:50 AM54 °FPassing clouds.9 mph72%29.86 "HgN/A
9:20 AM54 °FPassing clouds.7 mph72%29.86 "HgN/A
8:50 AM52 °FPassing clouds.8 mph72%29.86 "HgN/A
8:20 AM50 °FPassing clouds.5 mph82%29.89 "HgN/A
7:50 AM48 °FSunny.7 mph87%29.89 "Hg10 mi
7:20 AM46 °FPassing clouds.5 mph93%29.89 "HgN/A
6:50 AM45 °FSunny.3 mph100%29.89 "Hg10 mi
6:20 AM43 °FSunny.3 mph100%29.89 "Hg10 mi
8:50 PM
Thu, May 28
54 °FPassing clouds.15 mph72%29.86 "HgN/A
8:20 PM54 °FPassing clouds.16 mph72%29.86 "HgN/A
7:50 PM55 °FScattered clouds.20 mph67%29.86 "HgN/A
7:20 PM54 °FScattered clouds.8 mph88%29.86 "HgN/A
6:50 PM54 °FSprinkles. Broken clouds.7 mph100%29.86 "HgN/A
6:20 PM54 °FPartly sunny.8 mph100%29.86 "HgN/A
5:50 PM54 °FScattered showers. Broken clouds.7 mph100%29.86 "HgN/A
5:20 PM54 °FLight rain. Broken clouds.8 mph100%29.83 "HgN/A
Weather by CustomWeather, © 2015

See weather overviewHow to use our weather pages